Time,TemperatureF,DewpointF,PressureIn,WindDirection,WindDirectionDegrees,WindSpeedMPH,WindSpeedGustMPH,Humidity,HourlyPrecipIn,Conditions,Clouds,dailyrainin,SoftwareType,DateUTC
2013-04-23 00:00:00,56.3,51.2,30.16,North,0,0.0,0.0,83,0.00,,,0.18,WUHU216HW,2013-04-23 04:00:00,
2013-04-23 00:05:00,56.2,51.0,30.16,North,0,0.0,0.0,83,0.00,,,0.00,WUHU216HW,2013-04-23 04:05:00,
2013-04-23 00:10:00,56.2,51.3,30.16,North,0,0.0,0.0,84,0.00,,,0.00,WUHU216HW,2013-04-23 04:10:00,
2013-04-23 00:15:00,56.0,51.1,30.16,North,0,0.0,0.0,84,0.00,,,0.00,WUHU216HW,2013-04-23 04:15:00,
2013-04-23 00:20:00,56.0,51.1,30.16,North,0,0.0,0.0,84,0.00,,,0.00,WUHU216HW,2013-04-23 04:20:00,
2013-04-23 00:25:00,55.8,50.9,30.16,North,0,0.0,0.0,84,0.00,,,0.00,WUHU216HW,2013-04-23 04:25:00,
2013-04-23 00:30:00,55.6,50.8,30.16,North,0,0.0,0.0,84,0.00,,,0.00,WUHU216HW,2013-04-23 04:30:00,
2013-04-23 00:35:00,55.6,50.8,30.16,North,0,0.0,0.0,84,0.00,,,0.00,WUHU216HW,2013-04-23 04:35:00,
2013-04-23 00:40:00,55.6,50.8,30.16,North,0,0.0,0.0,84,0.00,,,0.00,WUHU216HW,2013-04-23 04:40:00,
2013-04-23 00:45:00,55.6,51.1,30.16,North,0,0.0,0.0,85,0.00,,,0.00,WUHU216HW,2013-04-23 04:45:00,
2013-04-23 00:50:00,55.6,51.1,30.16,North,0,0.4,0.7,85,0.00,,,0.00,WUHU216HW,2013-04-23 04:50:00,
2013-04-23 00:55:00,55.6,51.1,30.16,North,0,0.0,0.7,85,0.00,,,0.00,WUHU216HW,2013-04-23 04:55:00,
2013-04-23 01:00:00,55.6,51.5,30.16,North,0,0.4,0.4,86,0.00,,,0.00,WUHU216HW,2013-04-23 05:00:00,
2013-04-23 01:05:00,55.6,51.5,30.16,West,270,0.4,0.9,86,0.00,,,0.00,WUHU216HW,2013-04-23 05:05:00,
2013-04-23 01:10:00,55.6,51.5,30.16,West,270,0.4,0.9,86,0.00,,,0.00,WUHU216HW,2013-04-23 05:10:00,
2013-04-23 01:15:00,55.6,51.5,30.16,NNW,338,0.0,0.7,86,0.00,,,0.00,WUHU216HW,2013-04-23 05:15:00,
2013-04-23 01:20:00,55.4,51.3,30.16,NNW,338,0.0,0.7,86,0.00,,,0.00,WUHU216HW,2013-04-23 05:20:00,
2013-04-23 01:25:00,55.4,51.3,30.16,North,0,0.4,0.9,86,0.00,,,0.00,WUHU216HW,2013-04-23 05:25:00,
2013-04-23 01:30:00,55.4,51.3,30.15,North,0,1.1,1.1,86,0.00,,,0.00,WUHU216HW,2013-04-23 05:30:00,
2013-04-23 01:35:00,55.4,51.3,30.15,North,0,0.9,1.1,86,0.00,,,0.00,WUHU216HW,2013-04-23 05:35:00,
2013-04-23 01:40:00,55.4,51.3,30.15,North,0,0.9,1.1,86,0.00,,,0.00,WUHU216HW,2013-04-23 05:40:00,
2013-04-23 01:45:00,55.4,51.3,30.15,North,0,0.4,1.1,86,0.00,,,0.00,WUHU216HW,2013-04-23 05:45:00,
2013-04-23 01:50:00,55.4,51.3,30.14,NNW,338,0.0,1.1,86,0.00,,,0.00,WUHU216HW,2013-04-23 05:50:00,
2013-04-23 01:55:00,55.4,51.3,30.14,West,270,0.0,0.7,86,0.00,,,0.00,WUHU216HW,2013-04-23 05:55:00,
2013-04-23 02:00:00,55.3,51.1,30.14,North,0,1.1,1.1,86,0.00,,,0.00,WUHU216HW,2013-04-23 06:00:00,
2013-04-23 02:05:00,55.3,51.1,30.14,West,270,0.0,1.1,86,0.00,,,0.00,WUHU216HW,2013-04-23 06:05:00,
2013-04-23 02:10:00,55.1,51.0,30.14,NNW,338,0.2,0.9,86,0.00,,,0.00,WUHU216HW,2013-04-23 06:10:00,
2013-04-23 02:15:00,55.1,51.0,30.14,NNW,338,0.2,1.1,86,0.00,,,0.00,WUHU216HW,2013-04-23 06:15:00,
2013-04-23 02:20:00,55.1,51.0,30.13,North,0,1.3,1.3,86,0.00,,,0.00,WUHU216HW,2013-04-23 06:20:00,
2013-04-23 02:25:00,55.1,51.0,30.13,North,0,0.7,1.3,86,0.00,,,0.00,WUHU216HW,2013-04-23 06:25:00,
2013-04-23 02:30:00,55.1,51.0,30.13,North,0,1.1,1.1,86,0.00,,,0.00,WUHU216HW,2013-04-23 06:30:00,
2013-04-23 02:35:00,55.1,51.0,30.13,North,0,1.1,1.1,86,0.00,,,0.00,WUHU216HW,2013-04-23 06:35:00,
2013-04-23 02:40:00,54.9,50.8,30.12,North,0,0.7,1.1,86,0.00,,,0.00,WUHU216HW,2013-04-23 06:40:00,
2013-04-23 02:45:00,54.7,50.6,30.12,North,0,0.7,1.1,86,0.00,,,0.00,WUHU216HW,2013-04-23 06:45:00,
2013-04-23 02:50:00,54.7,50.6,30.12,North,0,0.9,1.1,86,0.00,,,0.00,WUHU216HW,2013-04-23 06:50:00,
2013-04-23 02:55:00,54.7,50.6,30.12,North,0,0.0,0.9,86,0.00,,,0.00,WUHU216HW,2013-04-23 06:55:00,
2013-04-23 03:00:00,54.5,50.4,30.12,North,0,0.7,0.9,86,0.00,,,0.00,WUHU216HW,2013-04-23 07:00:00,
2013-04-23 03:05:00,54.5,50.4,30.11,North,0,0.9,1.3,86,0.00,,,0.00,WUHU216HW,2013-04-23 07:05:00,
2013-04-23 03:10:00,54.4,50.2,30.11,North,0,0.7,1.3,86,0.00,,,0.00,WUHU216HW,2013-04-23 07:10:00,
2013-04-23 03:15:00,54.4,50.2,30.11,North,0,1.6,1.6,86,0.00,,,0.00,WUHU216HW,2013-04-23 07:15:00,
2013-04-23 03:20:00,54.4,50.2,30.11,North,0,1.1,1.8,86,0.00,,,0.00,WUHU216HW,2013-04-23 07:20:00,
2013-04-23 03:25:00,54.2,50.0,30.11,North,0,0.7,1.8,86,0.00,,,0.00,WUHU216HW,2013-04-23 07:25:00,
2013-04-23 03:30:00,54.2,50.0,30.11,North,0,1.1,1.1,86,0.00,,,0.00,WUHU216HW,2013-04-23 07:30:00,
2013-04-23 03:35:00,54.0,49.9,30.11,North,0,1.1,1.1,86,0.00,,,0.00,WUHU216HW,2013-04-23 07:35:00,
2013-04-23 03:40:00,54.0,49.9,30.11,North,0,1.3,1.6,86,0.00,,,0.00,WUHU216HW,2013-04-23 07:40:00,
2013-04-23 03:45:00,53.8,49.7,30.11,North,0,1.1,1.6,86,0.00,,,0.00,WUHU216HW,2013-04-23 07:45:00,
2013-04-23 03:50:00,53.6,49.5,30.11,North,0,1.3,1.3,86,0.00,,,0.00,WUHU216HW,2013-04-23 07:50:00,
2013-04-23 03:55:00,53.6,49.5,30.11,North,0,0.7,1.8,86,0.00,,,0.00,WUHU216HW,2013-04-23 07:55:00,
2013-04-23 04:00:00,53.6,49.5,30.11,NE,45,0.9,1.8,86,0.00,,,0.00,WUHU216HW,2013-04-23 08:00:00,
2013-04-23 04:05:00,53.5,49.3,30.11,North,0,1.1,1.1,86,0.00,,,0.00,WUHU216HW,2013-04-23 08:05:00,
2013-04-23 04:10:00,53.5,49.3,30.11,NNE,23,0.9,1.1,86,0.00,,,0.00,WUHU216HW,2013-04-23 08:10:00,
2013-04-23 04:15:00,53.5,49.3,30.11,North,0,0.9,1.1,86,0.00,,,0.00,WUHU216HW,2013-04-23 08:15:00,
2013-04-23 04:20:00,53.3,49.1,30.12,North,0,1.1,1.3,86,0.00,,,0.00,WUHU216HW,2013-04-23 08:20:00,
2013-04-23 04:25:00,53.3,49.1,30.12,North,0,0.0,1.3,86,0.00,,,0.00,WUHU216HW,2013-04-23 08:25:00,
2013-04-23 04:30:00,53.1,49.0,30.11,NNE,23,0.4,1.1,86,0.00,,,0.00,WUHU216HW,2013-04-23 08:30:00,
2013-04-23 04:35:00,52.9,48.8,30.11,North,0,0.7,1.1,86,0.00,,,0.00,WUHU216HW,2013-04-23 08:35:00,
2013-04-23 04:40:00,52.9,48.8,30.12,North,0,1.3,1.3,86,0.00,,,0.00,WUHU216HW,2013-04-23 08:40:00,
2013-04-23 04:45:00,52.9,48.8,30.12,North,0,1.1,1.6,86,0.00,,,0.00,WUHU216HW,2013-04-23 08:45:00,
2013-04-23 04:50:00,52.7,48.6,30.12,North,0,0.9,1.8,86,0.00,,,0.00,WUHU216HW,2013-04-23 08:50:00,
2013-04-23 04:55:00,52.7,48.6,30.12,North,0,0.7,1.8,86,0.00,,,0.00,WUHU216HW,2013-04-23 08:55:00,
2013-04-23 05:00:00,52.6,48.4,30.11,North,0,0.9,1.1,86,0.00,,,0.00,WUHU216HW,2013-04-23 09:00:00,
2013-04-23 05:05:00,52.6,48.4,30.11,NNE,23,0.9,0.9,86,0.00,,,0.00,WUHU216HW,2013-04-23 09:05:00,
2013-04-23 05:10:00,52.4,48.2,30.12,NNE,23,0.9,1.1,86,0.00,,,0.00,WUHU216HW,2013-04-23 09:10:00,
2013-04-23 05:15:00,52.2,48.1,30.12,North,0,0.4,1.1,86,0.00,,,0.00,WUHU216HW,2013-04-23 09:15:00,
2013-04-23 05:20:00,52.2,48.1,30.12,North,0,0.7,1.1,86,0.00,,,0.00,WUHU216HW,2013-04-23 09:20:00,
2013-04-23 05:25:00,52.0,47.9,30.12,NNE,23,0.7,1.1,86,0.00,,,0.00,WUHU216HW,2013-04-23 09:25:00,
2013-04-23 05:30:00,51.8,47.7,30.12,NNE,23,1.1,1.1,86,0.00,,,0.00,WUHU216HW,2013-04-23 09:30:00,
2013-04-23 05:35:00,51.7,47.9,30.12,North,0,0.9,1.1,87,0.00,,,0.00,WUHU216HW,2013-04-23 09:35:00,
2013-04-23 05:40:00,51.7,47.5,30.12,North,0,0.4,1.1,86,0.00,,,0.00,WUHU216HW,2013-04-23 09:40:00,
2013-04-23 05:45:00,51.5,47.7,30.12,North,0,0.9,0.9,87,0.00,,,0.00,WUHU216HW,2013-04-23 09:45:00,
2013-04-23 05:50:00,51.5,47.7,30.12,North,0,0.4,1.1,87,0.00,,,0.00,WUHU216HW,2013-04-23 09:50:00,
2013-04-23 05:55:00,51.5,47.7,30.12,North,0,0.9,1.1,87,0.00,,,0.00,WUHU216HW,2013-04-23 09:55:00,
2013-04-23 06:00:00,51.5,47.7,30.12,North,0,0.4,1.1,87,0.00,,,0.00,WUHU216HW,2013-04-23 10:00:00,
2013-04-23 06:05:00,51.1,47.4,30.13,North,0,0.7,0.9,87,0.00,,,0.00,WUHU216HW,2013-04-23 10:05:00,
2013-04-23 06:10:00,50.8,47.0,30.13,North,0,0.0,0.9,87,0.00,,,0.00,WUHU216HW,2013-04-23 10:10:00,
2013-04-23 06:15:00,50.8,47.3,30.13,North,0,0.4,0.4,88,0.00,,,0.00,WUHU216HW,2013-04-23 10:15:00,
2013-04-23 06:20:00,50.6,46.8,30.13,North,0,0.9,0.9,87,0.00,,,0.00,WUHU216HW,2013-04-23 10:20:00,
2013-04-23 06:25:00,50.4,46.6,30.13,North,0,0.4,0.9,87,0.00,,,0.00,WUHU216HW,2013-04-23 10:25:00,
2013-04-23 06:30:00,50.4,46.6,30.14,North,0,0.0,0.4,87,0.00,,,0.00,WUHU216HW,2013-04-23 10:30:00,
2013-04-23 06:35:00,50.2,46.7,30.14,North,0,0.2,0.2,88,0.00,,,0.00,WUHU216HW,2013-04-23 10:35:00,
2013-04-23 06:40:00,50.0,46.5,30.14,North,0,1.1,1.1,88,0.00,,,0.00,WUHU216HW,2013-04-23 10:40:00,
2013-04-23 06:45:00,50.0,46.5,30.14,North,0,0.9,1.1,88,0.00,,,0.00,WUHU216HW,2013-04-23 10:45:00,
2013-04-23 06:50:00,50.0,46.5,30.15,North,0,1.1,1.1,88,0.00,,,0.00,WUHU216HW,2013-04-23 10:50:00,
2013-04-23 06:55:00,50.0,46.5,30.15,North,0,0.7,1.1,88,0.00,,,0.00,WUHU216HW,2013-04-23 10:55:00,
2013-04-23 07:00:00,50.0,46.5,30.15,North,0,0.4,1.1,88,0.00,,,0.00,WUHU216HW,2013-04-23 11:00:00,
2013-04-23 07:05:00,50.0,46.5,30.15,North,0,1.3,1.3,88,0.00,,,0.00,WUHU216HW,2013-04-23 11:05:00,
2013-04-23 07:10:00,50.0,46.5,30.15,North,0,1.1,1.3,88,0.00,,,0.00,WUHU216HW,2013-04-23 11:10:00,
2013-04-23 07:15:00,50.0,46.5,30.15,North,0,0.9,1.6,88,0.00,,,0.00,WUHU216HW,2013-04-23 11:15:00,
2013-04-23 07:20:00,50.0,46.5,30.16,North,0,0.7,1.6,88,0.00,,,0.00,WUHU216HW,2013-04-23 11:20:00,
2013-04-23 07:25:00,50.2,46.7,30.16,North,0,0.4,0.9,88,0.00,,,0.00,WUHU216HW,2013-04-23 11:25:00,
2013-04-23 07:30:00,50.2,46.7,30.16,North,0,0.7,1.1,88,0.00,,,0.00,WUHU216HW,2013-04-23 11:30:00,
2013-04-23 07:35:00,50.4,47.3,30.17,North,0,0.0,1.1,89,0.00,,,0.00,WUHU216HW,2013-04-23 11:35:00,
2013-04-23 07:40:00,50.6,47.1,30.17,North,0,0.4,0.9,88,0.00,,,0.00,WUHU216HW,2013-04-23 11:40:00,
2013-04-23 07:45:00,50.9,47.8,30.17,North,0,0.7,0.9,89,0.00,,,0.00,WUHU216HW,2013-04-23 11:45:00,
2013-04-23 07:50:00,51.1,48.0,30.18,NE,45,0.9,0.9,89,0.00,,,0.00,WUHU216HW,2013-04-23 11:50:00,
2013-04-23 07:55:00,51.3,48.2,30.18,North,0,1.1,1.1,89,0.00,,,0.00,WUHU216HW,2013-04-23 11:55:00,
2013-04-23 08:00:00,51.7,48.5,30.18,North,0,1.3,2.2,89,0.00,,,0.00,WUHU216HW,2013-04-23 12:00:00,
2013-04-23 08:05:00,52.0,48.9,30.18,NNE,23,0.7,3.1,89,0.00,,,0.00,WUHU216HW,2013-04-23 12:05:00,
2013-04-23 08:10:00,52.7,49.6,30.19,North,0,1.1,3.1,89,0.00,,,0.00,WUHU216HW,2013-04-23 12:10:00,
2013-04-23 08:15:00,53.3,49.8,30.19,North,0,1.8,1.8,88,0.00,,,0.00,WUHU216HW,2013-04-23 12:15:00,
2013-04-23 08:20:00,53.5,49.7,30.18,NNE,23,2.0,2.0,87,0.00,,,0.00,WUHU216HW,2013-04-23 12:20:00,
2013-04-23 08:25:00,53.8,50.1,30.18,NNE,23,1.6,2.0,87,0.00,,,0.00,WUHU216HW,2013-04-23 12:25:00,
2013-04-23 08:30:00,54.0,49.9,30.18,North,0,1.6,2.9,86,0.00,,,0.00,WUHU216HW,2013-04-23 12:30:00,
2013-04-23 08:35:00,54.4,50.2,30.19,NE,45,1.6,3.4,86,0.00,,,0.00,WUHU216HW,2013-04-23 12:35:00,
2013-04-23 08:40:00,55.1,50.6,30.18,NNE,23,1.6,3.6,85,0.00,,,0.00,WUHU216HW,2013-04-23 12:40:00,
2013-04-23 08:45:00,55.4,50.9,30.18,North,0,2.2,3.8,85,0.00,,,0.00,WUHU216HW,2013-04-23 12:45:00,
2013-04-23 08:50:00,55.8,50.9,30.19,NNE,23,2.9,3.8,84,0.00,,,0.00,WUHU216HW,2013-04-23 12:50:00,
2013-04-23 08:55:00,56.0,51.1,30.19,NE,45,3.1,3.8,84,0.00,,,0.00,WUHU216HW,2013-04-23 12:55:00,
2013-04-23 09:00:00,56.0,51.1,30.19,NE,45,0.7,3.8,84,0.00,,,0.00,WUHU216HW,2013-04-23 13:00:00,
2013-04-23 09:05:00,56.2,51.0,30.19,NE,45,2.2,3.1,83,0.00,,,0.00,WUHU216HW,2013-04-23 13:05:00,
2013-04-23 09:10:00,56.3,51.2,30.19,North,0,2.0,4.7,83,0.00,,,0.00,WUHU216HW,2013-04-23 13:10:00,
2013-04-23 09:15:00,56.7,51.8,30.18,NNE,23,1.1,4.7,84,0.00,,,0.00,WUHU216HW,2013-04-23 13:15:00,
2013-04-23 09:20:00,57.2,52.1,30.18,ESE,113,0.7,4.5,83,0.00,,,0.00,WUHU216HW,2013-04-23 13:20:00,
2013-04-23 09:25:00,57.8,52.3,30.18,East,90,1.6,2.2,82,0.00,,,0.00,WUHU216HW,2013-04-23 13:25:00,
2013-04-23 09:30:00,58.0,52.8,30.19,WSW,248,0.4,2.5,83,0.00,,,0.00,WUHU216HW,2013-04-23 13:30:00,
2013-04-23 09:35:00,58.7,53.2,30.19,NNE,23,1.1,3.4,82,0.00,,,0.00,WUHU216HW,2013-04-23 13:35:00,
2013-04-23 09:40:00,59.4,53.3,30.18,NE,45,4.9,4.9,80,0.00,,,0.00,WUHU216HW,2013-04-23 13:40:00,
2013-04-23 09:45:00,59.8,53.3,30.18,North,0,2.5,4.9,79,0.00,,,0.00,WUHU216HW,2013-04-23 13:45:00,
2013-04-23 09:50:00,60.1,53.6,30.18,NE,45,2.2,3.8,79,0.00,,,0.00,WUHU216HW,2013-04-23 13:50:00,
2013-04-23 09:55:00,60.5,53.6,30.18,NE,45,3.1,4.5,78,0.00,,,0.00,WUHU216HW,2013-04-23 13:55:00,
2013-04-23 10:00:00,61.2,53.7,30.18,North,0,2.5,4.5,76,0.00,,,0.00,WUHU216HW,2013-04-23 14:00:00,
2013-04-23 10:05:00,61.7,53.7,30.18,NE,45,4.7,4.7,75,0.00,,,0.00,WUHU216HW,2013-04-23 14:05:00,
2013-04-23 10:10:00,63.0,54.9,30.18,NE,45,1.8,4.7,75,0.00,,,0.00,WUHU216HW,2013-04-23 14:10:00,
2013-04-23 10:15:00,65.2,56.7,30.18,East,90,1.1,4.5,74,0.00,,,0.00,WUHU216HW,2013-04-23 14:15:00,
2013-04-23 10:20:00,66.2,56.2,30.18,ENE,68,1.6,4.0,70,0.00,,,0.00,WUHU216HW,2013-04-23 14:20:00,
2013-04-23 10:25:00,68.0,57.5,30.18,ENE,68,1.6,3.1,69,0.00,,,0.00,WUHU216HW,2013-04-23 14:25:00,
2013-04-23 10:30:00,69.1,56.8,30.18,North,0,1.8,2.5,65,0.00,,,0.00,WUHU216HW,2013-04-23 14:30:00,
2013-04-23 10:35:00,70.0,57.7,30.18,North,0,1.1,2.5,65,0.00,,,0.00,WUHU216HW,2013-04-23 14:35:00,
2013-04-23 10:40:00,70.7,57.1,30.18,NNE,23,4.3,4.3,62,0.00,,,0.00,WUHU216HW,2013-04-23 14:40:00,
2013-04-23 10:45:00,71.1,57.9,30.18,ESE,113,3.1,4.3,63,0.00,,,0.00,WUHU216HW,2013-04-23 14:45:00,
2013-04-23 10:50:00,70.9,57.2,30.18,NE,45,2.2,3.4,62,0.00,,,0.00,WUHU216HW,2013-04-23 14:50:00,
2013-04-23 10:56:00,70.7,57.1,30.18,NE,45,1.3,3.4,62,0.00,,,0.00,WUHU216HW,2013-04-23 14:56:00,
2013-04-23 11:01:00,70.0,56.0,30.19,NNE,23,3.1,5.8,61,0.00,,,0.00,WUHU216HW,2013-04-23 15:01:00,
2013-04-23 11:06:00,69.5,55.9,30.19,North,0,2.5,5.8,62,0.00,,,0.00,WUHU216HW,2013-04-23 15:06:00,
2013-04-23 11:11:00,69.8,56.7,30.19,NNW,338,1.1,3.4,63,0.00,,,0.00,WUHU216HW,2013-04-23 15:11:00,
2013-04-23 11:16:00,70.2,56.6,30.19,North,0,3.1,4.3,62,0.00,,,0.00,WUHU216HW,2013-04-23 15:16:00,
2013-04-23 11:21:00,70.6,55.6,30.18,WSW,248,1.8,4.3,59,0.00,,,0.00,WUHU216HW,2013-04-23 15:21:00,
2013-04-23 11:26:00,70.7,55.3,30.18,North,0,1.8,3.6,58,0.00,,,0.00,WUHU216HW,2013-04-23 15:26:00,
2013-04-23 11:31:00,71.3,57.2,30.18,North,0,0.7,3.6,61,0.00,,,0.00,WUHU216HW,2013-04-23 15:31:00,
2013-04-23 11:36:00,71.5,55.4,30.18,SE,135,0.7,2.9,57,0.00,,,0.00,WUHU216HW,2013-04-23 15:36:00,
2013-04-23 11:41:00,71.3,55.7,30.18,South,180,1.1,4.3,58,0.00,,,0.00,WUHU216HW,2013-04-23 15:41:00,
2013-04-23 11:46:00,71.5,55.4,30.18,ENE,68,2.0,4.3,57,0.00,,,0.00,WUHU216HW,2013-04-23 15:46:00,
2013-04-23 11:51:00,71.8,56.3,30.18,NNW,338,0.4,2.0,58,0.00,,,0.00,WUHU216HW,2013-04-23 15:51:00,
2013-04-23 11:56:00,73.1,57.9,30.18,SW,225,1.8,1.8,59,0.00,,,0.00,WUHU216HW,2013-04-23 15:56:00,
2013-04-23 12:01:00,74.0,56.7,30.18,ESE,113,2.0,3.1,55,0.00,,,0.00,WUHU216HW,2013-04-23 16:01:00,
2013-04-23 12:06:00,73.6,57.3,30.17,NNW,338,3.1,3.1,57,0.00,,,0.00,WUHU216HW,2013-04-23 16:06:00,
2013-04-23 12:11:00,74.2,56.3,30.18,NE,45,3.8,4.0,54,0.00,,,0.00,WUHU216HW,2013-04-23 16:11:00,
2013-04-23 12:16:00,73.8,55.5,30.18,NE,45,3.4,4.9,53,0.00,,,0.00,WUHU216HW,2013-04-23 16:16:00,
2013-04-23 12:21:00,74.3,56.1,30.18,SE,135,2.5,5.4,53,0.00,,,0.00,WUHU216HW,2013-04-23 16:21:00,
2013-04-23 12:26:00,74.7,56.4,30.17,NE,45,1.1,5.4,53,0.00,,,0.00,WUHU216HW,2013-04-23 16:26:00,
2013-04-23 12:31:00,75.1,56.3,30.17,North,0,2.9,3.1,52,0.00,,,0.00,WUHU216HW,2013-04-23 16:31:00,
2013-04-23 12:36:00,75.6,57.2,30.17,NNW,338,1.3,3.1,53,0.00,,,0.00,WUHU216HW,2013-04-23 16:36:00,
2013-04-23 12:41:00,76.7,58.2,30.17,WSW,248,1.8,3.1,53,0.00,,,0.00,WUHU216HW,2013-04-23 16:41:00,
2013-04-23 12:46:00,76.7,57.2,30.17,ESE,113,0.7,3.8,51,0.00,,,0.00,WUHU216HW,2013-04-23 16:46:00,
2013-04-23 12:51:00,76.7,55.5,30.17,North,0,2.9,4.3,48,0.00,,,0.00,WUHU216HW,2013-04-23 16:51:00,
2013-04-23 12:56:00,76.7,56.2,30.16,SSE,158,1.3,4.3,49,0.00,,,0.00,WUHU216HW,2013-04-23 16:56:00,
2013-04-23 13:01:00,77.0,56.4,30.16,North,0,1.8,6.0,49,0.00,,,0.00,WUHU216HW,2013-04-23 17:01:00,
2013-04-23 13:06:00,77.2,54.8,30.16,North,0,1.6,6.0,46,0.00,,,0.00,WUHU216HW,2013-04-23 17:06:00,
2013-04-23 13:11:00,77.2,55.4,30.16,North,0,1.8,4.7,47,0.00,,,0.00,WUHU216HW,2013-04-23 17:11:00,
2013-04-23 13:16:00,77.2,56.6,30.16,North,0,1.1,4.7,49,0.00,,,0.00,WUHU216HW,2013-04-23 17:16:00,
2013-04-23 13:21:00,77.8,55.3,30.16,NE,45,2.2,3.4,46,0.00,,,0.00,WUHU216HW,2013-04-23 17:21:00,
2013-04-23 13:26:00,77.4,55.5,30.15,NE,45,1.1,3.1,47,0.00,,,0.00,WUHU216HW,2013-04-23 17:26:00,
2013-04-23 13:31:00,77.0,55.3,30.15,ESE,113,1.6,3.6,47,0.00,,,0.00,WUHU216HW,2013-04-23 17:31:00,
2013-04-23 13:36:00,77.4,54.9,30.15,East,90,1.8,4.7,46,0.00,,,0.00,WUHU216HW,2013-04-23 17:36:00,
2013-04-23 13:41:00,77.4,54.4,30.15,ENE,68,3.4,4.7,45,0.00,,,0.00,WUHU216HW,2013-04-23 17:41:00,
2013-04-23 13:46:00,77.0,54.6,30.15,SE,135,3.4,4.0,46,0.00,,,0.00,WUHU216HW,2013-04-23 17:46:00,
2013-04-23 13:51:00,77.4,55.5,30.15,North,0,1.3,4.0,47,0.00,,,0.00,WUHU216HW,2013-04-23 17:51:00,
2013-04-23 13:56:00,78.1,55.6,30.14,ESE,113,0.7,4.0,46,0.00,,,0.00,WUHU216HW,2013-04-23 17:56:00,
2013-04-23 14:01:00,78.3,55.7,30.14,NE,45,0.9,3.6,46,0.00,,,0.00,WUHU216HW,2013-04-23 18:01:00,
2013-04-23 14:06:00,78.5,55.9,30.14,WSW,248,0.4,3.6,46,0.00,,,0.00,WUHU216HW,2013-04-23 18:06:00,
2013-04-23 14:11:00,79.4,54.9,30.14,ENE,68,3.4,3.4,43,0.00,,,0.00,WUHU216HW,2013-04-23 18:11:00,
2013-04-23 14:16:00,78.8,55.6,30.14,NNE,23,2.0,4.5,45,0.00,,,0.00,WUHU216HW,2013-04-23 18:16:00,
2013-04-23 14:21:00,79.0,55.8,30.14,ENE,68,1.6,4.5,45,0.00,,,0.00,WUHU216HW,2013-04-23 18:21:00,
2013-04-23 14:26:00,79.4,56.7,30.13,North,0,1.6,2.5,46,0.00,,,0.00,WUHU216HW,2013-04-23 18:26:00,
2013-04-23 14:31:00,79.9,57.3,30.13,NE,45,1.8,2.5,46,0.00,,,0.00,WUHU216HW,2013-04-23 18:31:00,
2013-04-23 14:36:00,80.1,56.8,30.13,ESE,113,3.8,3.8,45,0.00,,,0.00,WUHU216HW,2013-04-23 18:36:00,
2013-04-23 14:41:00,79.4,55.5,30.13,NNE,23,1.1,3.8,44,0.00,,,0.00,WUHU216HW,2013-04-23 18:41:00,
2013-04-23 14:46:00,79.2,54.7,30.13,NNE,23,1.6,3.4,43,0.00,,,0.00,WUHU216HW,2013-04-23 18:46:00,
2013-04-23 14:51:00,79.2,56.0,30.13,NW,315,1.1,3.4,45,0.00,,,0.00,WUHU216HW,2013-04-23 18:51:00,
2013-04-23 14:56:00,79.2,56.0,30.13,East,90,0.9,4.5,45,0.00,,,0.00,WUHU216HW,2013-04-23 18:56:00,
2013-04-23 15:01:00,79.0,56.4,30.12,NNW,338,0.4,4.5,46,0.00,,,0.00,WUHU216HW,2013-04-23 19:01:00,
2013-04-23 15:06:00,79.6,56.9,30.13,North,0,3.4,3.4,46,0.00,,,0.00,WUHU216HW,2013-04-23 19:06:00,
2013-04-23 15:11:00,79.6,56.3,30.13,NE,45,1.3,4.0,45,0.00,,,0.00,WUHU216HW,2013-04-23 19:11:00,
2013-04-23 15:16:00,79.0,55.8,30.13,SW,225,1.3,4.0,45,0.00,,,0.00,WUHU216HW,2013-04-23 19:16:00,
2013-04-23 15:21:00,79.0,55.8,30.12,WSW,248,0.4,3.1,45,0.00,,,0.00,WUHU216HW,2013-04-23 19:21:00,
2013-04-23 15:26:00,79.0,55.2,30.12,East,90,1.6,3.1,44,0.00,,,0.00,WUHU216HW,2013-04-23 19:26:00,
2013-04-23 15:31:00,78.7,54.8,30.12,NNW,338,2.2,6.5,44,0.00,,,0.00,WUHU216HW,2013-04-23 19:31:00,
2013-04-23 15:36:00,78.7,56.1,30.12,North,0,2.2,6.5,46,0.00,,,0.00,WUHU216HW,2013-04-23 19:36:00,
2013-04-23 15:41:00,79.2,56.5,30.12,NNW,338,2.5,2.9,46,0.00,,,0.00,WUHU216HW,2013-04-23 19:41:00,
2013-04-23 15:46:00,79.6,56.9,30.11,WNW,293,0.2,2.9,46,0.00,,,0.00,WUHU216HW,2013-04-23 19:46:00,
2013-04-23 15:51:00,79.7,57.1,30.11,North,0,2.5,2.5,46,0.00,,,0.00,WUHU216HW,2013-04-23 19:51:00,
2013-04-23 15:56:00,79.9,57.3,30.11,North,0,1.8,2.5,46,0.00,,,0.00,WUHU216HW,2013-04-23 19:56:00,
2013-04-23 16:01:00,80.1,56.8,30.11,NE,45,4.3,4.5,45,0.00,,,0.00,WUHU216HW,2013-04-23 20:01:00,
2013-04-23 16:06:00,79.4,55.5,30.11,NE,45,2.5,4.5,44,0.00,,,0.00,WUHU216HW,2013-04-23 20:06:00,
2013-04-23 16:11:00,78.7,56.1,30.11,SSE,158,3.8,6.0,46,0.00,,,0.00,WUHU216HW,2013-04-23 20:11:00,
2013-04-23 16:16:00,78.7,56.7,30.11,SSE,158,1.1,6.0,47,0.00,,,0.00,WUHU216HW,2013-04-23 20:16:00,
2013-04-23 16:21:00,78.5,55.9,30.11,South,180,1.8,4.7,46,0.00,,,0.00,WUHU216HW,2013-04-23 20:21:00,
2013-04-23 16:26:00,78.1,55.6,30.10,NE,45,1.1,4.5,46,0.00,,,0.00,WUHU216HW,2013-04-23 20:26:00,
2013-04-23 16:31:00,78.1,55.0,30.10,NE,45,4.3,4.3,45,0.00,,,0.00,WUHU216HW,2013-04-23 20:31:00,
2013-04-23 16:36:00,78.1,55.6,30.10,NE,45,2.9,4.3,46,0.00,,,0.00,WUHU216HW,2013-04-23 20:36:00,
2013-04-23 16:41:00,78.1,55.0,30.10,NE,45,3.4,4.5,45,0.00,,,0.00,WUHU216HW,2013-04-23 20:41:00,
2013-04-23 16:46:00,78.3,55.7,30.10,NNE,23,1.8,4.5,46,0.00,,,0.00,WUHU216HW,2013-04-23 20:46:00,
2013-04-23 16:48:00,78.1,55.0,30.10,SW,225,1.8,3.4,45,0.00,,,0.00,WUHU216HW,2013-04-23 20:48:00,
2013-04-23 16:53:00,78.1,55.6,30.10,NE,45,1.6,3.8,46,0.00,,,0.00,WUHU216HW,2013-04-23 20:53:00,
2013-04-23 16:56:00,78.3,55.7,30.10,ENE,68,1.1,4.0,46,0.00,,,0.00,WUHU216HW,2013-04-23 20:56:00,
2013-04-23 16:58:00,78.1,56.2,30.10,East,90,2.9,4.0,47,0.00,,,0.00,WUHU216HW,2013-04-23 20:58:00,
2013-04-23 17:01:00,77.8,56.5,30.10,ENE,68,0.7,4.0,48,0.00,,,0.00,WUHU216HW,2013-04-23 21:01:00,
2013-04-23 17:03:00,77.6,57.0,30.10,ENE,68,0.4,4.0,49,0.00,,,0.00,WUHU216HW,2013-04-23 21:03:00,
2013-04-23 17:08:00,77.4,57.4,30.10,SE,135,4.0,5.4,50,0.00,,,0.00,WUHU216HW,2013-04-23 21:08:00,
2013-04-23 17:11:00,77.2,58.2,30.10,SE,135,3.8,5.4,52,0.00,,,0.00,WUHU216HW,2013-04-23 21:11:00,
2013-04-23 17:13:00,77.0,57.6,30.10,ENE,68,2.5,5.4,51,0.00,,,0.00,WUHU216HW,2013-04-23 21:13:00,
2013-04-23 17:18:00,76.1,57.2,30.10,SE,135,3.4,4.7,52,0.00,,,0.00,WUHU216HW,2013-04-23 21:18:00,
2013-04-23 17:21:00,75.8,57.4,30.10,NNE,23,1.8,4.0,53,0.00,,,0.00,WUHU216HW,2013-04-23 21:21:00,
2013-04-23 17:23:00,75.8,57.4,30.10,ESE,113,2.2,4.0,53,0.00,,,0.00,WUHU216HW,2013-04-23 21:23:00,
2013-04-23 17:28:00,75.4,57.6,30.10,SSE,158,3.1,4.5,54,0.00,,,0.00,WUHU216HW,2013-04-23 21:28:00,
2013-04-23 17:31:00,75.4,57.6,30.10,SSE,158,7.2,7.2,54,0.00,,,0.00,WUHU216HW,2013-04-23 21:31:00,
2013-04-23 17:33:00,75.2,58.0,30.10,ENE,68,1.8,7.2,55,0.00,,,0.00,WUHU216HW,2013-04-23 21:33:00,
2013-04-23 17:36:00,75.2,58.0,30.10,North,0,2.0,7.2,55,0.00,,,0.00,WUHU216HW,2013-04-23 21:36:00,
2013-04-23 17:38:00,74.9,57.6,30.10,SE,135,4.0,7.2,55,0.00,,,0.00,WUHU216HW,2013-04-23 21:38:00,
2013-04-23 17:41:00,74.5,57.2,30.10,South,180,1.6,4.0,55,0.00,,,0.00,WUHU216HW,2013-04-23 21:41:00,
2013-04-23 17:43:00,74.5,57.8,30.10,SSE,158,3.1,4.0,56,0.00,,,0.00,WUHU216HW,2013-04-23 21:43:00,
2013-04-23 17:46:00,74.2,56.9,30.10,SE,135,4.9,4.9,55,0.00,,,0.00,WUHU216HW,2013-04-23 21:46:00,
2013-04-23 17:51:00,73.4,57.2,30.10,SE,135,1.6,9.2,57,0.00,,,0.00,WUHU216HW,2013-04-23 21:51:00,
2013-04-23 17:53:00,73.3,57.5,30.10,SSE,158,3.4,9.2,58,0.00,,,0.00,WUHU216HW,2013-04-23 21:53:00,
2013-04-23 17:56:00,73.3,57.5,30.10,ESE,113,1.1,9.2,58,0.00,,,0.00,WUHU216HW,2013-04-23 21:56:00,
2013-04-23 17:58:00,73.3,58.1,30.10,SE,135,4.5,6.3,59,0.00,,,0.00,WUHU216HW,2013-04-23 21:58:00,
2013-04-23 18:01:00,72.9,57.7,30.10,SE,135,2.0,6.3,59,0.00,,,0.00,WUHU216HW,2013-04-23 22:01:00,
2013-04-23 18:03:00,72.7,57.5,30.10,SE,135,6.5,7.8,59,0.00,,,0.00,WUHU216HW,2013-04-23 22:03:00,
2013-04-23 18:06:00,72.4,57.7,30.10,SE,135,5.4,7.8,60,0.00,,,0.00,WUHU216HW,2013-04-23 22:06:00,
2013-04-23 18:08:00,72.4,57.7,30.10,SSE,158,4.0,7.8,60,0.00,,,0.00,WUHU216HW,2013-04-23 22:08:00,
2013-04-23 18:11:00,72.2,57.5,30.10,SE,135,3.4,7.8,60,0.00,,,0.00,WUHU216HW,2013-04-23 22:11:00,
2013-04-23 18:13:00,72.0,57.8,30.10,SSE,158,6.5,6.5,61,0.00,,,0.00,WUHU216HW,2013-04-23 22:13:00,
2013-04-23 18:16:00,71.6,57.5,30.10,SSE,158,4.0,6.5,61,0.00,,,0.00,WUHU216HW,2013-04-23 22:16:00,
2013-04-23 18:18:00,71.5,57.8,30.10,ESE,113,1.8,9.6,62,0.00,,,0.00,WUHU216HW,2013-04-23 22:18:00,
2013-04-23 18:21:00,71.3,57.2,30.10,East,90,2.9,9.6,61,0.00,,,0.00,WUHU216HW,2013-04-23 22:21:00,
2013-04-23 18:23:00,71.1,57.4,30.10,ENE,68,2.7,9.6,62,0.00,,,0.00,WUHU216HW,2013-04-23 22:23:00,
2013-04-23 18:26:00,70.9,57.2,30.10,SE,135,2.7,9.6,62,0.00,,,0.00,WUHU216HW,2013-04-23 22:26:00,
2013-04-23 18:28:00,70.9,56.9,30.10,East,90,0.9,4.7,61,0.00,,,0.00,WUHU216HW,2013-04-23 22:28:00,
2013-04-23 18:31:00,70.7,57.1,30.10,East,90,1.3,4.7,62,0.00,,,0.00,WUHU216HW,2013-04-23 22:31:00,
2013-04-23 18:33:00,70.7,56.7,30.10,NE,45,3.1,4.7,61,0.00,,,0.00,WUHU216HW,2013-04-23 22:33:00,
2013-04-23 18:36:00,70.6,57.0,30.10,SSE,158,6.3,6.3,62,0.00,,,0.00,WUHU216HW,2013-04-23 22:36:00,
2013-04-23 18:41:00,70.2,56.6,30.10,NE,45,1.8,6.3,62,0.00,,,0.00,WUHU216HW,2013-04-23 22:41:00,
2013-04-23 18:43:00,70.2,56.6,30.10,NW,315,0.9,6.3,62,0.00,,,0.00,WUHU216HW,2013-04-23 22:43:00,
2013-04-23 18:48:00,69.7,56.5,30.10,SE,135,4.3,4.9,63,0.00,,,0.00,WUHU216HW,2013-04-23 22:48:00,
2013-04-23 18:51:00,69.5,56.8,30.11,NE,45,2.0,4.9,64,0.00,,,0.00,WUHU216HW,2013-04-23 22:51:00,
2013-04-23 18:56:00,69.1,56.4,30.11,South,180,3.4,4.3,64,0.00,,,0.00,WUHU216HW,2013-04-23 22:56:00,
2013-04-23 18:58:00,69.1,56.8,30.11,SE,135,5.1,5.1,65,0.00,,,0.00,WUHU216HW,2013-04-23 22:58:00,
2013-04-23 19:01:00,68.9,56.7,30.11,SE,135,1.1,5.1,65,0.00,,,0.00,WUHU216HW,2013-04-23 23:01:00,
2013-04-23 19:03:00,68.8,56.5,30.11,ESE,113,5.1,5.1,65,0.00,,,0.00,WUHU216HW,2013-04-23 23:03:00,
2013-04-23 19:08:00,68.6,56.4,30.11,SE,135,4.0,5.1,65,0.00,,,0.00,WUHU216HW,2013-04-23 23:08:00,
2013-04-23 19:11:00,68.4,56.2,30.11,SE,135,2.5,5.1,65,0.00,,,0.00,WUHU216HW,2013-04-23 23:11:00,
2013-04-23 19:13:00,68.2,56.0,30.11,SE,135,3.4,4.0,65,0.00,,,0.00,WUHU216HW,2013-04-23 23:13:00,
2013-04-23 19:18:00,67.9,56.1,30.11,ENE,68,2.5,3.4,66,0.00,,,0.00,WUHU216HW,2013-04-23 23:18:00,
2013-04-23 19:23:00,67.5,56.2,30.11,SE,135,2.9,5.8,67,0.00,,,0.00,WUHU216HW,2013-04-23 23:23:00,
2013-04-23 19:26:00,67.3,56.0,30.11,East,90,3.4,5.8,67,0.00,,,0.00,WUHU216HW,2013-04-23 23:26:00,
2013-04-23 19:28:00,67.3,56.0,30.11,SE,135,3.6,5.8,67,0.00,,,0.00,WUHU216HW,2013-04-23 23:28:00,
2013-04-23 19:31:00,67.1,56.3,30.11,SE,135,1.1,4.3,68,0.00,,,0.00,WUHU216HW,2013-04-23 23:31:00,
2013-04-23 19:33:00,67.0,56.1,30.11,East,90,1.3,4.3,68,0.00,,,0.00,WUHU216HW,2013-04-23 23:33:00,
2013-04-23 19:36:00,66.8,55.9,30.11,East,90,1.6,3.6,68,0.00,,,0.00,WUHU216HW,2013-04-23 23:36:00,
2013-04-23 19:38:00,66.6,55.7,30.11,ESE,113,2.2,2.2,68,0.00,,,0.00,WUHU216HW,2013-04-23 23:38:00,
2013-04-23 19:41:00,66.6,55.7,30.11,East,90,3.1,3.1,68,0.00,,,0.00,WUHU216HW,2013-04-23 23:41:00,
2013-04-23 19:43:00,66.4,55.9,30.11,SE,135,3.4,3.4,69,0.00,,,0.00,WUHU216HW,2013-04-23 23:43:00,
2013-04-23 19:46:00,66.2,55.7,30.12,ESE,113,1.1,3.4,69,0.00,,,0.00,WUHU216HW,2013-04-23 23:46:00,
2013-04-23 19:51:00,65.9,55.5,30.12,SE,135,2.5,4.7,69,0.00,,,0.00,WUHU216HW,2013-04-23 23:51:00,
2013-04-23 19:53:00,65.9,55.8,30.12,SSE,158,1.3,4.7,70,0.00,,,0.00,WUHU216HW,2013-04-23 23:53:00,
2013-04-23 19:56:00,65.5,55.5,30.12,SE,135,1.8,4.7,70,0.00,,,0.00,WUHU216HW,2013-04-23 23:56:00,
2013-04-23 19:58:00,65.5,55.5,30.12,ESE,113,2.0,3.6,70,0.00,,,0.00,WUHU216HW,2013-04-23 23:58:00,
2013-04-23 20:01:00,65.2,55.5,30.12,SE,135,3.8,3.8,71,0.00,,,0.00,WUHU216HW,2013-04-24 00:01:00,
2013-04-23 20:03:00,65.0,55.4,30.12,SSE,158,1.8,3.8,71,0.00,,,0.00,WUHU216HW,2013-04-24 00:03:00,
2013-04-23 20:06:00,64.8,55.6,30.12,SSE,158,2.0,3.8,72,0.00,,,0.00,WUHU216HW,2013-04-24 00:06:00,
2013-04-23 20:08:00,64.6,55.8,30.12,SE,135,3.4,3.8,73,0.00,,,0.00,WUHU216HW,2013-04-24 00:08:00,
2013-04-23 20:13:00,64.3,55.4,30.12,SE,135,3.4,3.6,73,0.00,,,0.00,WUHU216HW,2013-04-24 00:13:00,
2013-04-23 20:16:00,64.1,55.3,30.12,SSE,158,1.6,3.6,73,0.00,,,0.00,WUHU216HW,2013-04-24 00:16:00,
2013-04-23 20:18:00,63.9,55.1,30.12,SE,135,3.1,3.6,73,0.00,,,0.00,WUHU216HW,2013-04-24 00:18:00,
2013-04-23 20:21:00,63.7,55.3,30.12,SSE,158,3.1,3.4,74,0.00,,,0.00,WUHU216HW,2013-04-24 00:21:00,
2013-04-23 20:23:00,63.7,55.3,30.12,SSE,158,1.8,3.4,74,0.00,,,0.00,WUHU216HW,2013-04-24 00:23:00,
2013-04-23 20:26:00,63.5,55.1,30.12,SSE,158,1.1,3.1,74,0.00,,,0.00,WUHU216HW,2013-04-24 00:26:00,
2013-04-23 20:28:00,63.4,54.9,30.13,SSE,158,1.6,3.1,74,0.00,,,0.00,WUHU216HW,2013-04-24 00:28:00,
2013-04-23 20:31:00,63.4,54.9,30.13,SSE,158,0.0,2.7,74,0.00,,,0.00,WUHU216HW,2013-04-24 00:31:00,
2013-04-23 20:33:00,63.2,54.7,30.13,SSE,158,1.6,2.7,74,0.00,,,0.00,WUHU216HW,2013-04-24 00:33:00,
2013-04-23 20:36:00,63.2,54.7,30.13,SE,135,1.1,3.1,74,0.00,,,0.00,WUHU216HW,2013-04-24 00:36:00,
2013-04-23 20:38:00,63.0,54.5,30.13,SSE,158,1.1,3.1,74,0.00,,,0.00,WUHU216HW,2013-04-24 00:38:00,
2013-04-23 20:41:00,63.0,54.5,30.13,SSE,158,1.8,3.1,74,0.00,,,0.00,WUHU216HW,2013-04-24 00:41:00,
2013-04-23 20:43:00,62.8,54.4,30.13,ESE,113,0.4,3.1,74,0.00,,,0.00,WUHU216HW,2013-04-24 00:43:00,
2013-04-23 20:46:00,62.8,54.7,30.13,SE,135,1.1,1.8,75,0.00,,,0.00,WUHU216HW,2013-04-24 00:46:00,
2013-04-23 20:48:00,62.6,53.8,30.13,SE,135,0.2,2.0,73,0.00,,,0.00,WUHU216HW,2013-04-24 00:48:00,
2013-04-23 20:53:00,62.5,54.4,30.14,SE,135,0.9,3.4,75,0.00,,,0.00,WUHU216HW,2013-04-24 00:53:00,
2013-04-23 20:56:00,62.3,53.8,30.14,SE,135,1.1,3.4,74,0.00,,,0.00,WUHU216HW,2013-04-24 00:56:00,
2013-04-23 20:58:00,62.3,54.2,30.14,SSE,158,2.2,3.4,75,0.00,,,0.00,WUHU216HW,2013-04-24 00:58:00,
2013-04-23 21:01:00,62.1,54.1,30.14,SSE,158,1.8,3.4,75,0.00,,,0.00,WUHU216HW,2013-04-24 01:01:00,
2013-04-23 21:06:00,61.7,54.1,30.14,SE,135,2.0,2.2,76,0.00,,,0.00,WUHU216HW,2013-04-24 01:06:00,
2013-04-23 21:08:00,61.7,54.1,30.14,SE,135,1.3,2.2,76,0.00,,,0.00,WUHU216HW,2013-04-24 01:08:00,
2013-04-23 21:11:00,61.6,53.9,30.14,SE,135,1.1,2.2,76,0.00,,,0.00,WUHU216HW,2013-04-24 01:11:00,
2013-04-23 21:13:00,61.6,53.9,30.14,SE,135,1.8,2.2,76,0.00,,,0.00,WUHU216HW,2013-04-24 01:13:00,
2013-04-23 21:18:00,61.2,54.0,30.15,SE,135,0.9,1.8,77,0.00,,,0.00,WUHU216HW,2013-04-24 01:18:00,
2013-04-23 21:21:00,61.0,53.8,30.15,SE,135,1.3,2.0,77,0.00,,,0.00,WUHU216HW,2013-04-24 01:21:00,
2013-04-23 21:23:00,61.0,54.2,30.15,ESE,113,1.8,2.0,78,0.00,,,0.00,WUHU216HW,2013-04-24 01:23:00,
2013-04-23 21:26:00,60.8,54.4,30.15,SE,135,0.7,2.0,79,0.00,,,0.00,WUHU216HW,2013-04-24 01:26:00,
2013-04-23 21:28:00,60.8,55.1,30.15,East,90,2.5,3.4,81,0.00,,,0.00,WUHU216HW,2013-04-24 01:28:00,
2013-04-23 21:31:00,60.5,54.4,30.15,SE,135,3.1,3.4,80,0.00,,,0.00,WUHU216HW,2013-04-24 01:31:00,
2013-04-23 21:33:00,60.5,54.4,30.15,SE,135,2.5,3.4,80,0.00,,,0.00,WUHU216HW,2013-04-24 01:33:00,
2013-04-23 21:36:00,60.3,54.2,30.15,ESE,113,1.3,4.3,80,0.00,,,0.00,WUHU216HW,2013-04-24 01:36:00,
2013-04-23 21:41:00,60.1,54.0,30.16,SE,135,1.6,4.3,80,0.00,,,0.00,WUHU216HW,2013-04-24 01:41:00,
2013-04-23 21:46:00,59.9,53.8,30.16,SSE,158,1.1,3.4,80,0.00,,,0.00,WUHU216HW,2013-04-24 01:46:00,
2013-04-23 21:48:00,59.9,54.2,30.16,SSE,158,1.1,3.4,81,0.00,,,0.00,WUHU216HW,2013-04-24 01:48:00,
2013-04-23 21:51:00,59.8,53.6,30.16,SSE,158,0.0,1.8,80,0.00,,,0.00,WUHU216HW,2013-04-24 01:51:00,
2013-04-23 21:53:00,59.8,54.0,30.16,SE,135,0.0,1.8,81,0.00,,,0.00,WUHU216HW,2013-04-24 01:53:00,
2013-04-23 21:56:00,59.6,53.8,30.16,SSE,158,0.4,1.8,81,0.00,,,0.00,WUHU216HW,2013-04-24 01:56:00,
2013-04-23 21:58:00,59.6,53.8,30.16,SSE,158,0.4,1.1,81,0.00,,,0.00,WUHU216HW,2013-04-24 01:58:00,
2013-04-23 22:01:00,59.6,53.8,30.16,ENE,68,0.4,1.1,81,0.00,,,0.00,WUHU216HW,2013-04-24 02:01:00,
2013-04-23 22:03:00,59.4,53.7,30.16,ENE,68,0.0,1.1,81,0.00,,,0.00,WUHU216HW,2013-04-24 02:03:00,
2013-04-23 22:06:00,59.4,53.7,30.16,SE,135,0.4,1.1,81,0.00,,,0.00,WUHU216HW,2013-04-24 02:06:00,
2013-04-23 22:08:00,59.4,53.7,30.16,SE,135,0.0,1.1,81,0.00,,,0.00,WUHU216HW,2013-04-24 02:08:00,
2013-04-23 22:11:00,59.4,53.7,30.16,ENE,68,0.0,1.1,81,0.00,,,0.00,WUHU216HW,2013-04-24 02:11:00,
2013-04-23 22:13:00,59.4,53.7,30.16,ENE,68,0.0,1.1,81,0.00,,,0.00,WUHU216HW,2013-04-24 02:13:00,
2013-04-23 22:18:00,59.4,53.3,30.16,ENE,68,0.0,0.7,80,0.00,,,0.00,WUHU216HW,2013-04-24 02:18:00,
2013-04-23 22:21:00,59.4,53.3,30.16,ESE,113,0.0,0.7,80,0.00,,,0.00,WUHU216HW,2013-04-24 02:21:00,
2013-04-23 22:26:00,59.4,53.7,30.16,NNE,23,0.0,0.2,81,0.00,,,0.00,WUHU216HW,2013-04-24 02:26:00,
2013-04-23 22:28:00,59.2,53.1,30.16,NNE,23,0.0,0.2,80,0.00,,,0.00,WUHU216HW,2013-04-24 02:28:00,
2013-04-23 22:31:00,59.2,53.5,30.17,NNE,23,0.0,0.0,81,0.00,,,0.00,WUHU216HW,2013-04-24 02:31:00,
2013-04-23 22:36:00,59.0,53.3,30.17,NNE,23,0.0,0.0,81,0.00,,,0.00,WUHU216HW,2013-04-24 02:36:00,
2013-04-23 22:38:00,59.0,53.3,30.17,NNE,23,0.0,0.0,81,0.00,,,0.00,WUHU216HW,2013-04-24 02:38:00,
2013-04-23 22:42:00,58.9,53.1,30.17,NNE,23,0.0,0.0,81,0.00,,,0.00,WUHU216HW,2013-04-24 02:42:00,
2013-04-23 22:47:00,58.7,53.2,30.17,NNE,23,0.0,0.0,82,0.00,,,0.00,WUHU216HW,2013-04-24 02:47:00,
2013-04-23 22:49:00,58.7,53.2,30.17,NNE,23,0.0,0.0,82,0.00,,,0.00,WUHU216HW,2013-04-24 02:49:00,
2013-04-23 22:52:00,58.7,53.2,30.16,NNE,23,0.9,0.9,82,0.00,,,0.00,WUHU216HW,2013-04-24 02:52:00,
2013-04-23 22:54:00,58.5,53.0,30.16,NNE,23,0.9,0.9,82,0.00,,,0.00,WUHU216HW,2013-04-24 02:54:00,
2013-04-23 22:59:00,58.5,53.0,30.17,NNE,23,0.0,0.9,82,0.00,,,0.00,WUHU216HW,2013-04-24 02:59:00,
2013-04-23 23:02:00,58.5,53.0,30.17,NNE,23,0.0,0.9,82,0.00,,,0.00,WUHU216HW,2013-04-24 03:02:00,
2013-04-23 23:05:00,58.3,52.8,30.17,NE,45,0.9,1.1,82,0.00,,,0.00,WUHU216HW,2013-04-24 03:05:00,
2013-04-23 23:07:00,58.3,52.8,30.16,NE,45,0.0,1.1,82,0.00,,,0.00,WUHU216HW,2013-04-24 03:07:00,
2013-04-23 23:10:00,58.1,52.7,30.16,NE,45,0.0,1.1,82,0.00,,,0.00,WUHU216HW,2013-04-24 03:10:00,
2013-04-23 23:12:00,58.0,52.8,30.16,NE,45,0.0,1.1,83,0.00,,,0.00,WUHU216HW,2013-04-24 03:12:00,
2013-04-23 23:15:00,58.0,52.8,30.16,NE,45,0.4,1.1,83,0.00,,,0.00,WUHU216HW,2013-04-24 03:15:00,
2013-04-23 23:17:00,57.8,52.7,30.16,NE,45,0.0,1.1,83,0.00,,,0.00,WUHU216HW,2013-04-24 03:17:00,
2013-04-23 23:22:00,57.8,52.7,30.16,NE,45,0.0,1.1,83,0.00,,,0.00,WUHU216HW,2013-04-24 03:22:00,
2013-04-23 23:25:00,57.6,52.5,30.16,NE,45,0.2,0.7,83,0.00,,,0.00,WUHU216HW,2013-04-24 03:25:00,
2013-04-23 23:27:00,57.6,52.5,30.16,NE,45,0.0,0.7,83,0.00,,,0.00,WUHU216HW,2013-04-24 03:27:00,
2013-04-23 23:31:00,57.4,52.3,30.16,NE,45,0.0,0.7,83,0.00,,,0.00,WUHU216HW,2013-04-24 03:31:00,
2013-04-23 23:32:00,57.4,52.3,30.16,NE,45,0.0,0.7,83,0.00,,,0.00,WUHU216HW,2013-04-24 03:32:00,
2013-04-23 23:36:00,57.2,52.1,30.16,NE,45,0.7,0.9,83,0.00,,,0.00,WUHU216HW,2013-04-24 03:36:00,
2013-04-23 23:37:00,57.2,52.1,30.16,NE,45,1.1,1.1,83,0.00,,,0.00,WUHU216HW,2013-04-24 03:37:00,
2013-04-23 23:41:00,57.1,51.9,30.16,NE,45,0.0,1.1,83,0.00,,,0.00,WUHU216HW,2013-04-24 03:41:00,
2013-04-23 23:47:00,56.9,52.0,30.16,NE,45,1.1,1.3,84,0.00,,,0.00,WUHU216HW,2013-04-24 03:47:00,
2013-04-23 23:52:00,56.7,51.8,30.16,NE,45,0.0,1.3,84,0.00,,,0.00,WUHU216HW,2013-04-24 03:52:00,
2013-04-23 23:57:00,56.7,51.8,30.16,NE,45,0.2,0.9,84,0.00,,,0.00,WUHU216HW,2013-04-24 03:57:00,